| time (UTC) | temp F | wind direction | speed knots | gust knots | rain 1hr in | rain 24hr in | rain mn in | humidity % | barometer mb |
| 20260508105631 | 66 | 270 | 0.0 | 2.6 | 0.00 | 0.00 | 0.00 | 33 | 1001.0 |
| 20260508104131 | 66 | 270 | 0.0 | 4.3 | 0.00 | 0.00 | 0.00 | 33 | 1001.0 |
| 20260508103617 | 66 | 270 | 0.0 | 1.7 | 0.00 | 0.00 | 0.00 | 33 | 1001.0 |
| 20260508102632 | 67 | 225 | 0.0 | 1.7 | 0.00 | 0.00 | 0.00 | 33 | 1001.0 |
| 20260508101132 | 67 | 270 | 1.7 | 2.6 | 0.00 | 0.00 | 0.00 | 34 | 1000.0 |
| 20260508100617 | 67 | 225 | 0.0 | 0.0 | 0.00 | 0.00 | 0.00 | 34 | 1000.0 |
| 20260508095632 | 68 | 280 | 1.7 | 2.6 | 0.00 | 0.00 | 0.00 | 35 | 1000.0 |
| 20260508093616 | 68 | 225 | 0.0 | 0.0 | 0.00 | 0.00 | 0.00 | 38 | 999.0 |
| 20260508092631 | 68 | 225 | 0.0 | 1.7 | 0.00 | 0.00 | 0.00 | 38 | 999.0 |
| 20260508091131 | 69 | 270 | 0.0 | 1.7 | 0.00 | 0.00 | 0.00 | 37 | 999.0 |
| 20260508090618 | 69 | 270 | 0.0 | 2.6 | 0.00 | 0.00 | 0.00 | 37 | 999.0 |
| 20260508085631 | 70 | 270 | 1.7 | 5.2 | 0.00 | 0.00 | 0.00 | 35 | 999.0 |
| 20260508084132 | 72 | 270 | 0.0 | 1.7 | 0.00 | 0.00 | 0.00 | 34 | 998.0 |
| 20260508083618 | 73 | 294 | 2.6 | 4.3 | 0.00 | 0.00 | 0.00 | 30 | 998.0 |
| 20260508082631 | 73 | 115 | 2.6 | 2.6 | 0.00 | 0.00 | 0.00 | 28 | 998.0 |
| 20260508081131 | 74 | 151 | 4.3 | 4.3 | 0.00 | 0.00 | 0.00 | 27 | 998.0 |
| 20260508080617 | 74 | 245 | 1.7 | 2.6 | 0.00 | 0.00 | 0.00 | 27 | 998.0 |
| 20260508075631 | 74 | 280 | 4.3 | 5.2 | 0.00 | 0.00 | 0.00 | 27 | 998.0 |
| 20260508074132 | 75 | 236 | 0.9 | 1.7 | 0.00 | 0.00 | 0.00 | 26 | 997.0 |
| 20260508073617 | 75 | 244 | 2.6 | 4.3 | 0.00 | 0.00 | 0.00 | 26 | 997.0 |
| 20260508072630 | 75 | 280 | 2.6 | 4.3 | 0.00 | 0.00 | 0.00 | 24 | 997.0 |
| 20260508071132 | 76 | 242 | 2.6 | 4.3 | 0.00 | 0.00 | 0.00 | 24 | 997.0 |
| 20260508070617 | 75 | 160 | 1.7 | 5.2 | 0.00 | 0.00 | 0.00 | 24 | 997.0 |
| 20260508065632 | 74 | 164 | 4.3 | 5.2 | 0.00 | 0.00 | 0.00 | 25 | 997.0 |
| 20260508063617 | 74 | 217 | 4.3 | 5.2 | 0.00 | 0.00 | 0.00 | 25 | 997.0 |
| 20260508062631 | 74 | 202 | 4.3 | 2.6 | 0.00 | 0.00 | 0.00 | 25 | 997.0 |
| 20260508061131 | 74 | 284 | 4.3 | 7.8 | 0.00 | 0.00 | 0.00 | 25 | 997.0 |
| 20260508060616 | 74 | 207 | 5.2 | 8.7 | 0.00 | 0.00 | 0.00 | 25 | 997.0 |
| 20260508055631 | 74 | 245 | 4.3 | 5.2 | 0.00 | 0.00 | 0.00 | 25 | 997.0 |
| 20260508054131 | 74 | 348 | 2.6 | 6.1 | 0.00 | 0.00 | 0.00 | 26 | 997.2 |
| 20260508053616 | 74 | 107 | 4.3 | 7.0 | 0.00 | 0.00 | 0.00 | 25 | 997.0 |
| 20260508051131 | 77 | 260 | 7.0 | 5.2 | 0.00 | 0.00 | 0.00 | 23 | 998.0 |
| 20260508050618 | 78 | 181 | 2.6 | 5.2 | 0.00 | 0.00 | 0.00 | 24 | 998.0 |
| 20260508045630 | 76 | 176 | 5.2 | 6.1 | 0.00 | 0.00 | 0.00 | 27 | 998.0 |
| 20260508044131 | 77 | 215 | 2.6 | 5.2 | 0.00 | 0.00 | 0.00 | 30 | 998.0 |
| 20260508043617 | 77 | 235 | 2.6 | 6.1 | 0.00 | 0.00 | 0.00 | 30 | 998.0 |
| 20260508042631 | 77 | 202 | 2.6 | 5.2 | 0.00 | 0.00 | 0.00 | 30 | 998.0 |
| 20260508041131 | 77 | 186 | 5.2 | 5.2 | 0.00 | 0.00 | 0.00 | 30 | 998.0 |
| 20260508040617 | 76 | 232 | 2.6 | 4.3 | 0.00 | 0.00 | 0.00 | 31 | 998.0 |
| 20260508035630 | 76 | 199 | 4.3 | 4.3 | 0.00 | 0.00 | 0.00 | 31 | 998.0 |
| 20260508034130 | 75 | 241 | 2.6 | 4.3 | 0.00 | 0.00 | 0.00 | 33 | 998.0 |
| 20260508033617 | 75 | 295 | 4.3 | 5.2 | 0.00 | 0.00 | 0.00 | 33 | 998.0 |
| 20260508032630 | 75 | 144 | 4.3 | 4.3 | 0.00 | 0.00 | 0.00 | 32 | 998.0 |
| 20260508030616 | 76 | 268 | 2.6 | 5.2 | 0.00 | 0.00 | 0.00 | 32 | 998.0 |
| 20260508025631 | 76 | 273 | 2.6 | 5.2 | 0.00 | 0.00 | 0.00 | 32 | 998.0 |
| 20260508023617 | 75 | 152 | 4.3 | 5.2 | 0.00 | 0.00 | 0.00 | 32 | 998.0 |
| 20260508022630 | 75 | 254 | 2.6 | 5.2 | 0.00 | 0.00 | 0.00 | 32 | 998.0 |
| 20260508021130 | 75 | 281 | 2.6 | 5.2 | 0.00 | 0.00 | 0.00 | 33 | 999.0 |
| 20260508020617 | 75 | 243 | 4.3 | 4.3 | 0.00 | 0.00 | 0.00 | 33 | 999.0 |
| 20260508015631 | 74 | 96 | 2.6 | 4.3 | 0.00 | 0.00 | 0.00 | 34 | 999.0 |
| 20260508014130 | 74 | 180 | 4.3 | 4.3 | 0.00 | 0.00 | 0.00 | 34 | 999.0 |
| 20260508013616 | 74 | 192 | 1.7 | 5.2 | 0.00 | 0.00 | 0.00 | 34 | 999.0 |
| 20260508012632 | 75 | 161 | 4.3 | 2.6 | 0.00 | 0.00 | 0.00 | 34 | 999.0 |
| 20260508011131 | 75 | 175 | 0.9 | 2.6 | 0.00 | 0.00 | 0.00 | 35 | 999.0 |
| 20260508010616 | 75 | 163 | 2.6 | 5.2 | 0.00 | 0.00 | 0.00 | 35 | 999.0 |
| 20260508005630 | 75 | 201 | 2.6 | 4.3 | 0.00 | 0.00 | 0.00 | 36 | 999.0 |
| 20260508004131 | 75 | 162 | 0.9 | 2.6 | 0.00 | 0.00 | 0.00 | 41 | 999.0 |
| 20260508003616 | 74 | 264 | 2.6 | 1.7 | 0.00 | 0.00 | 0.00 | 41 | 999.0 |
| 20260508002631 | 75 | 135 | 0.9 | 1.7 | 0.00 | 0.00 | 0.00 | 43 | 999.0 |
| 20260508001130 | 73 | 141 | 0.9 | 4.3 | 0.00 | 0.00 | 0.00 | 50 | 999.0 |
| 20260508000615 | 73 | 270 | 0.9 | 1.7 | 0.00 | 0.00 | 0.00 | 53 | 999.0 |
| 20260507235629 | 72 | 212 | 1.7 | 2.6 | 0.00 | 0.00 | 0.00 | 56 | 999.0 |
| 20260507234130 | 72 | 179 | 2.6 | 4.3 | 0.00 | 0.00 | 0.00 | 56 | 999.0 |
| 20260507233617 | 72 | 304 | 4.3 | 7.0 | 0.00 | 0.00 | 0.00 | 57 | 999.0 |
| 20260507232630 | 72 | 273 | 1.7 | 4.3 | 0.00 | 0.00 | 0.00 | 57 | 999.0 |
| 20260507231130 | 71 | 225 | 0.0 | 1.7 | 0.00 | 0.00 | 0.00 | 57 | 999.0 |
| 20260507230617 | 71 | 225 | 0.9 | 1.7 | 0.00 | 0.00 | 0.00 | 57 | 1000.0 |
| 20260507225631 | 71 | 135 | 0.0 | 0.0 | 0.00 | 0.00 | 0.00 | 57 | 1000.0 |
| 20260507223616 | 71 | 135 | 0.0 | 0.0 | 0.00 | 0.00 | 0.00 | 55 | 999.0 |
| 20260507222629 | 71 | 135 | 0.0 | 0.0 | 0.00 | 0.00 | 0.00 | 57 | 999.0 |
| 20260507221129 | 70 | 135 | 0.0 | 0.0 | 0.00 | 0.00 | 0.00 | 60 | 999.0 |
| 20260507220616 | 70 | 135 | 0.0 | 0.0 | 0.00 | 0.00 | 0.00 | 61 | 999.0 |
| 20260507215630 | 70 | 135 | 0.0 | 0.0 | 0.00 | 0.00 | 0.00 | 62 | 999.0 |
| 20260507214131 | 69 | 135 | 0.0 | 0.0 | 0.00 | 0.00 | 0.00 | 63 | 1000.0 |
| 20260507213616 | 69 | 135 | 0.0 | 0.0 | 0.00 | 0.00 | 0.00 | 63 | 1000.0 |
| 20260507212631 | 69 | 135 | 0.0 | 0.0 | 0.00 | 0.00 | 0.00 | 64 | 1000.0 |
| 20260507211131 | 68 | 135 | 0.0 | 2.6 | 0.00 | 0.00 | 0.00 | 64 | 999.0 |
| 20260507210616 | 68 | 135 | 0.0 | 0.0 | 0.00 | 0.00 | 0.00 | 65 | 1000.0 |
| 20260507205630 | 68 | 135 | 0.0 | 1.7 | 0.00 | 0.00 | 0.00 | 65 | 1000.0 |
| 20260507204131 | 68 | 135 | 0.0 | 1.7 | 0.00 | 0.00 | 0.00 | 66 | 1000.0 |
| 20260507203615 | 68 | 135 | 0.9 | 5.2 | 0.00 | 0.00 | 0.00 | 66 | 1000.0 |
| 20260507202629 | 68 | 135 | 0.0 | 2.6 | 0.00 | 0.00 | 0.00 | 66 | 1000.0 |
| 20260507201129 | 68 | 135 | 0.0 | 5.2 | 0.00 | 0.00 | 0.00 | 65 | 1000.0 |
| 20260507200616 | 68 | 135 | 0.9 | 4.3 | 0.00 | 0.00 | 0.00 | 65 | 1000.0 |
| 20260507195629 | 68 | 135 | 0.0 | 0.0 | 0.00 | 0.00 | 0.00 | 65 | 1000.0 |
| 20260507194131 | 68 | 135 | 0.0 | 1.7 | 0.00 | 0.00 | 0.00 | 65 | 1000.0 |
| 20260507193616 | 68 | 135 | 0.0 | 0.0 | 0.00 | 0.00 | 0.00 | 66 | 1000.0 |
| 20260507192630 | 68 | 135 | 0.0 | 4.3 | 0.00 | 0.00 | 0.00 | 67 | 1000.0 |
| 20260507191130 | 68 | 135 | 0.0 | 0.0 | 0.00 | 0.00 | 0.00 | 67 | 1000.0 |
| 20260507190615 | 68 | 135 | 0.0 | 2.6 | 0.00 | 0.00 | 0.00 | 67 | 1000.0 |
| 20260507185630 | 68 | 135 | 0.9 | 1.7 | 0.00 | 0.00 | 0.00 | 67 | 1000.0 |
| 20260507184132 | 68 | 135 | 0.0 | 5.2 | 0.00 | 0.00 | 0.00 | 65 | 1000.0 |
| 20260507183619 | 68 | 135 | 0.0 | 4.3 | 0.00 | 0.00 | 0.00 | 65 | 1000.0 |
| 20260507182633 | 68 | 135 | 0.0 | 0.0 | 0.00 | 0.00 | 0.00 | 65 | 1000.0 |
| 20260507180619 | 68 | 135 | 1.7 | 4.3 | 0.00 | 0.00 | 0.00 | 66 | 1000.0 |
| 20260507175632 | 68 | 180 | 0.0 | 1.7 | 0.00 | 0.00 | 0.00 | 67 | 1000.0 |
| 20260507174131 | 68 | 180 | 0.0 | 0.0 | 0.00 | 0.00 | 0.00 | 68 | 1000.0 |
| 20260507173619 | 68 | 180 | 0.0 | 0.0 | 0.00 | 0.00 | 0.00 | 68 | 1000.0 |
| 20260507172631 | 68 | 180 | 0.0 | 1.7 | 0.00 | 0.00 | 0.00 | 69 | 1000.0 |
| 20260507171131 | 68 | 180 | 0.0 | 0.0 | 0.00 | 0.00 | 0.00 | 70 | 1000.0 |
| 20260507170618 | 67 | 180 | 0.0 | 0.0 | 0.00 | 0.00 | 0.00 | 71 | 1000.0 |
| 20260507165632 | 67 | 180 | 0.0 | 0.0 | 0.00 | 0.00 | 0.00 | 71 | 1000.0 |
| 20260507164131 | 67 | 180 | 0.0 | 0.0 | 0.00 | 0.00 | 0.00 | 72 | 1000.0 |
| 20260507163618 | 67 | 180 | 0.0 | 0.0 | 0.00 | 0.00 | 0.00 | 72 | 1001.0 |
| 20260507162633 | 67 | 180 | 0.0 | 0.0 | 0.00 | 0.00 | 0.00 | 71 | 1001.0 |
| 20260507161133 | 67 | 180 | 0.0 | 0.0 | 0.00 | 0.00 | 0.00 | 72 | 1001.0 |
| 20260507160618 | 67 | 180 | 0.0 | 0.0 | 0.00 | 0.00 | 0.00 | 72 | 1001.0 |
| 20260507155633 | 67 | 180 | 0.0 | 0.0 | 0.00 | 0.00 | 0.00 | 72 | 1001.0 |
| 20260507154132 | 67 | 180 | 0.9 | 1.7 | 0.00 | 0.00 | 0.00 | 70 | 1002.0 |
| 20260507153618 | 67 | 180 | 0.0 | 0.0 | 0.00 | 0.00 | 0.00 | 70 | 1001.0 |
| 20260507152633 | 68 | 180 | 0.0 | 0.0 | 0.00 | 0.00 | 0.00 | 69 | 1001.0 |
| 20260507151132 | 68 | 180 | 0.0 | 0.0 | 0.00 | 0.00 | 0.00 | 68 | 1002.0 |
| 20260507150617 | 68 | 180 | 0.0 | 0.0 | 0.00 | 0.00 | 0.00 | 67 | 1001.0 |
| 20260507145632 | 68 | 180 | 0.0 | 0.0 | 0.00 | 0.00 | 0.00 | 67 | 1001.0 |
| 20260507144132 | 68 | 180 | 0.0 | 0.0 | 0.00 | 0.00 | 0.00 | 65 | 1002.0 |
| 20260507143617 | 69 | 180 | 0.0 | 0.0 | 0.00 | 0.00 | 0.00 | 64 | 1002.0 |
| 20260507142632 | 69 | 180 | 0.0 | 0.0 | 0.00 | 0.00 | 0.00 | 64 | 1002.0 |
| 20260507141132 | 69 | 225 | 0.0 | 0.0 | 0.00 | 0.00 | 0.00 | 63 | 1002.0 |
| 20260507140619 | 69 | 180 | 0.9 | 1.7 | 0.00 | 0.00 | 0.00 | 63 | 1002.0 |
| 20260507135631 | 69 | 180 | 0.0 | 0.0 | 0.00 | 0.00 | 0.00 | 63 | 1002.0 |
| 20260507134132 | 69 | 180 | 0.0 | 2.6 | 0.00 | 0.00 | 0.00 | 62 | 1002.0 |
| 20260507133618 | 69 | 270 | 0.0 | 0.0 | 0.00 | 0.00 | 0.00 | 62 | 1003.0 |
| 20260507132631 | 69 | 225 | 0.0 | 0.0 | 0.00 | 0.00 | 0.00 | 62 | 1002.2 |
| 20260507131131 | 69 | 225 | 0.0 | 0.0 | 0.00 | 0.00 | 0.00 | 61 | 1002.0 |
| 20260507130618 | 70 | 225 | 0.0 | 0.0 | 0.00 | 0.00 | 0.00 | 61 | 1002.0 |
| 20260507125632 | 70 | 225 | 0.0 | 0.0 | 0.00 | 0.00 | 0.00 | 59 | 1002.0 |
| 20260507124131 | 70 | 180 | 0.0 | 0.0 | 0.00 | 0.00 | 0.00 | 57 | 1002.0 |
| 20260507123618 | 70 | 270 | 0.0 | 0.0 | 0.00 | 0.00 | 0.00 | 57 | 1002.0 |
| 20260507122630 | 70 | 270 | 0.9 | 1.7 | 0.00 | 0.00 | 0.00 | 56 | 1002.0 |
| 20260507121132 | 71 | 270 | 0.0 | 0.0 | 0.00 | 0.00 | 0.00 | 53 | 1002.0 |
| 20260507120617 | 71 | 201 | 0.0 | 0.0 | 0.00 | 0.00 | 0.00 | 53 | 1002.0 |
| 20260507115632 | 71 | 268 | 0.0 | 1.7 | 0.00 | 0.00 | 0.00 | 52 | 1002.0 |
| 20260507114131 | 71 | 152 | 0.9 | 2.6 | 0.00 | 0.00 | 0.00 | 51 | 1002.0 |
| 20260507113617 | 71 | 213 | 2.6 | 4.3 | 0.00 | 0.00 | 0.00 | 50 | 1002.0 |
| 20260507112632 | 71 | 226 | 0.0 | 2.6 | 0.00 | 0.00 | 0.00 | 49 | 1002.0 |
| 20260507111132 | 71 | 312 | 0.0 | 2.6 | 0.00 | 0.00 | 0.00 | 47 | 1002.0 |
| 20260507110617 | 71 | 252 | 0.9 | 4.3 | 0.00 | 0.00 | 0.00 | 47 | 1002.0 |